Le nostre stazioni meteo in Italia

Pubblicità
Il mio iltempo24.it
Cozzo Spadaro, Italia (16480): Temperatura & dewpoint: 08.11.2019 10:00:00 - 14.11.2019 10:00:00 (CET)Cozzo Spadaro, Italia (16480): velocità del vento: 08.11.2019 10:00:00 - 14.11.2019 10:00:00 (CET)Cozzo Spadaro, Italia (16480): direzione del vento: 08.11.2019 10:00:00 - 14.11.2019 10:00:00 (CET)Cozzo Spadaro, Italia (16480): reduced air pressure: 08.11.2019 10:00:00 - 14.11.2019 10:00:00 (CET)Cozzo Spadaro, Italia (16480): visibility: 08.11.2019 10:00:00 - 14.11.2019 10:00:00 (CET)Cozzo Spadaro, Italia (16480): ore di luce: 08.11.2019 10:00:00 - 14.11.2019 10:00:00 (CET)
Data & Tempo tt [°C] td [°C] ff [km/h] ff [kn] dd ppp [hPa] vv [km] sd [min]
14.11.2019 10:00:00 17,4 13,9 9 5 SSO 1008,6 18 0
14.11.2019 09:00:00 14,4 12,8 4 2 O 1008,6 9 0
14.11.2019 08:00:00 14,0 13,5 0 0 N 1008,1 15 0
14.11.2019 07:00:00 13,4 13,4 4 2 OSO 1008,3 12 0
14.11.2019 06:00:00 - - - - - - - -
14.11.2019 05:00:00 - - - - - - - -
14.11.2019 04:00:00 - - - - - - - -
14.11.2019 03:00:00 - - - - - - - -
14.11.2019 02:00:00 - - - - - - - -
14.11.2019 01:00:00 - - - - - - - -
14.11.2019 00:00:00 - - - - - - - -
13.11.2019 23:00:00 - - - - - - - -
13.11.2019 22:00:00 - - - - - - - -
13.11.2019 21:00:00 - - - - - - - -
13.11.2019 20:00:00 - - - - - - - -
13.11.2019 19:00:00 15,4 12,5 13 7 ONO 1008,1 20 -
13.11.2019 18:00:00 16,0 11,4 13 7 ONO 1007,1 25 -
13.11.2019 17:00:00 17,0 10,4 16 9 ONO 1006,3 25 30
13.11.2019 16:00:00 18,6 10,9 16 9 ONO 1005,9 25 60
13.11.2019 15:00:00 18,8 10,4 18 10 ONO 1005,8 25 60
13.11.2019 14:00:00 19,0 12,0 21 11 ONO 1005,8 25 60
13.11.2019 13:00:00 19,0 11,6 21 11 ONO 1005,8 25 60
13.11.2019 12:00:00 19,0 12,5 15 8 O 1005,8 25 60
13.11.2019 11:00:00 19,2 13,6 15 8 ONO 1004,9 18 60
13.11.2019 10:00:00 17,8 15,1 11 6 O 1004,1 12 36
13.11.2019 09:00:00 16,0 14,0 9 5 NNO 1003,3 10 0
13.11.2019 08:00:00 16,0 15,4 13 7 ONO 1002,6 10 0
13.11.2019 07:00:00 15,6 13,8 11 6 ONO 1002,5 10 0
13.11.2019 06:00:00 - - - - - - - -
13.11.2019 05:00:00 - - - - - - - -
13.11.2019 04:00:00 - - - - - - - -
13.11.2019 03:00:00 - - - - - - - -
13.11.2019 02:00:00 - - - - - - - -
13.11.2019 01:00:00 - - - - - - - -
13.11.2019 00:00:00 - - - - - - - -
12.11.2019 23:00:00 - - - - - - - -
12.11.2019 22:00:00 - - - - - - - -
12.11.2019 21:00:00 - - - - - - - -
12.11.2019 20:00:00 - - - - - - - -
12.11.2019 19:00:00 14,6 13,0 29 16 SO 997,0 6 -
12.11.2019 18:00:00 15,6 13,3 29 16 SO 996,3 8 -
12.11.2019 17:00:00 15,4 13,4 28 15 SO 996,5 10 0
12.11.2019 16:00:00 15,8 11,8 28 15 SO 996,0 10 0
12.11.2019 15:00:00 17,0 12,1 31 17 SO 995,9 10 6
12.11.2019 14:00:00 17,8 13,1 35 19 SO 995,5 10 54
12.11.2019 13:00:00 16,6 14,1 39 21 SO 996,0 10 36
12.11.2019 12:00:00 16,4 13,9 31 17 SO 996,1 6 6
12.11.2019 11:00:00 17,0 11,9 37 20 SO 996,9 6 36
12.11.2019 10:00:00 17,0 11,5 24 13 OSO 996,0 10 30
12.11.2019 09:00:00 16,0 12,5 24 13 NNO 995,6 12 6
12.11.2019 08:00:00 15,0 13,4 28 15 SO 995,4 5 0
12.11.2019 07:00:00 15,4 15,2 22 12 SO 995,4 8 0
12.11.2019 06:00:00 - - - - - - - -
12.11.2019 05:00:00 - - - - - - - -
12.11.2019 04:00:00 - - - - - - - -
12.11.2019 03:00:00 - - - - - - - -
12.11.2019 02:00:00 - - - - - - - -
12.11.2019 01:00:00 - - - - - - - -
12.11.2019 00:00:00 - - - - - - - -
11.11.2019 23:00:00 - - - - - - - -
11.11.2019 22:00:00 - - - - - - - -
11.11.2019 21:00:00 - - - - - - - -
11.11.2019 20:00:00 - - - - - - - -
11.11.2019 19:00:00 19,0 18,2 34 18 ESE 1001,1 10 -
11.11.2019 18:00:00 19,0 18,7 35 19 ESE 1000,0 10 -
11.11.2019 17:00:00 19,4 19,4 29 16 SE 1001,0 10 0
11.11.2019 16:00:00 19,4 19,4 26 14 ESE 1001,1 15 0
11.11.2019 15:00:00 19,4 19,4 37 20 ESE 1002,6 15 0
11.11.2019 14:00:00 20,6 17,2 37 20 SE 1003,5 15 0
11.11.2019 13:00:00 20,6 15,8 31 17 SE 1005,7 20 0
11.11.2019 12:00:00 21,4 14,8 26 14 SE 1007,2 25 0
11.11.2019 11:00:00 21,8 15,2 26 14 SE 1007,9 25 24
11.11.2019 10:00:00 20,8 14,0 22 12 SE 1009,0 20 24
11.11.2019 09:00:00 20,0 13,2 21 11 SSE 1009,9 25 0
11.11.2019 08:00:00 19,8 13,3 18 10 S 1010,0 25 0
11.11.2019 07:00:00 18,8 14,9 13 7 S 1010,0 25 0
11.11.2019 06:00:00 - - - - - - - -
11.11.2019 05:00:00 - - - - - - - -
11.11.2019 04:00:00 - - - - - - - -
11.11.2019 03:00:00 - - - - - - - -
11.11.2019 02:00:00 - - - - - - - -
11.11.2019 01:00:00 - - - - - - - -
11.11.2019 00:00:00 - - - - - - - -
10.11.2019 23:00:00 - - - - - - - -
10.11.2019 22:00:00 - - - - - - - -
10.11.2019 21:00:00 - - - - - - - -
10.11.2019 20:00:00 - - - - - - - -
10.11.2019 19:00:00 17,8 9,9 8 4 SSO 1012,1 20 -
10.11.2019 18:00:00 16,6 11,1 2 1 OSO 1012,1 20 -
10.11.2019 17:00:00 17,4 11,2 2 1 O 1012,1 25 0
10.11.2019 16:00:00 19,2 10,5 8 4 O 1012,0 25 60
10.11.2019 15:00:00 19,6 11,6 11 6 O 1012,0 25 60
10.11.2019 14:00:00 19,4 12,7 11 6 O 1012,0 25 60
10.11.2019 13:00:00 19,0 12,3 13 7 O 1012,5 25 60
10.11.2019 12:00:00 18,8 11,9 15 8 O 1013,0 25 60
10.11.2019 11:00:00 18,8 12,5 13 7 O 1013,0 25 60
10.11.2019 10:00:00 18,0 13,1 13 7 ONO 1012,6 20 60
10.11.2019 09:00:00 16,8 12,5 13 7 ONO 1012,4 25 60
10.11.2019 08:00:00 15,0 12,3 9 5 ONO 1012,4 25 48
10.11.2019 07:00:00 13,0 10,5 8 4 ONO 1012,2 20 0
10.11.2019 06:00:00 - - - - - - - -
10.11.2019 05:00:00 - - - - - - - -
10.11.2019 04:00:00 - - - - - - - -
10.11.2019 03:00:00 - - - - - - - -
10.11.2019 02:00:00 - - - - - - - -
10.11.2019 01:00:00 - - - - - - - -
10.11.2019 00:00:00 - - - - - - - -
09.11.2019 23:00:00 - - - - - - - -
09.11.2019 22:00:00 - - - - - - - -
09.11.2019 21:00:00 - - - - - - - -
09.11.2019 20:00:00 - - - - - - - -
09.11.2019 19:00:00 14,0 11,5 2 1 NO 1011,1 10 -
09.11.2019 18:00:00 14,2 10,4 9 5 ONO 1011,0 18 0
09.11.2019 17:00:00 15,0 10,6 8 4 ONO 1011,1 20 0
09.11.2019 16:00:00 15,4 11,8 13 7 NO 1011,5 20 0
09.11.2019 15:00:00 16,4 12,0 24 13 ONO 1011,0 20 18
09.11.2019 14:00:00 15,6 15,3 21 11 ONO 1011,0 15 0
09.11.2019 13:00:00 16,6 16,3 26 14 ONO 1011,0 4,0 0
09.11.2019 12:00:00 18,8 15,3 8 4 O 1011,8 12 48
09.11.2019 11:00:00 21,2 16,4 11 6 ONO 1012,0 20 18
09.11.2019 10:00:00 20,8 16,2 13 7 O 1012,0 20 42
09.11.2019 09:00:00 20,0 15,4 16 9 SO 1012,0 20 48
09.11.2019 08:00:00 20,4 15,0 15 8 SO 1011,8 20 18
09.11.2019 07:00:00 17,0 15,4 4 2 O 1012,8 20 0
09.11.2019 06:00:00 - - - - - - - -
09.11.2019 05:00:00 - - - - - - - -
09.11.2019 04:00:00 - - - - - - - -
09.11.2019 03:00:00 - - - - - - - -
09.11.2019 02:00:00 - - - - - - - -
09.11.2019 01:00:00 - - - - - - - -
09.11.2019 00:00:00 - - - - - - - -
08.11.2019 23:00:00 - - - - - - - -
08.11.2019 22:00:00 - - - - - - - -
08.11.2019 21:00:00 - - - - - - - -
08.11.2019 20:00:00 - - - - - - - -
08.11.2019 19:00:00 19,0 12,3 15 8 OSO 1011,8 20 -
08.11.2019 18:00:00 19,2 12,9 15 8 OSO 1011,2 20 -
08.11.2019 17:00:00 19,6 14,0 13 7 OSO 1011,0 25 0
08.11.2019 16:00:00 20,8 12,0 15 8 OSO 1011,0 20 48
08.11.2019 15:00:00 18,8 15,3 5 3 ONO 1011,0 25 18
08.11.2019 14:00:00 18,6 16,4 15 8 ONO 1011,0 25 0
08.11.2019 13:00:00 21,0 13,9 16 9 OSO 1011,1 20 42
08.11.2019 12:00:00 21,0 12,2 16 9 OSO 1011,8 25 60
08.11.2019 11:00:00 20,6 15,8 21 11 O 1012,0 25 60
08.11.2019 10:00:00 19,6 15,0 4 2 SO 1012,0 25 60

tt = Temperatura
td = dewpoint
ff = velocità del vento
dd = direzione del vento
ppp = reduced air pressure
vv = visibility
sd = ore di luce

Stazioni seguenti

WeatherPro
AMSI
MeteoEarth